TimeCST,TemperatureF,Dew PointF,Humidity,Sea Level PressureIn,VisibilityMPH,Wind Direction,Wind SpeedMPH,Gust SpeedMPH,PrecipitationIn,Events,Conditions,WindDirDegrees,DateUTC
12:12 AM,23.0,21.2,93,30.00,4.0,ENE,8.1,-,N/A,,Overcast,70,2013-02-26 06:12:00
12:33 AM,23.0,21.2,93,29.99,3.0,ENE,9.2,-,N/A,,Overcast,60,2013-02-26 06:33:00
12:52 AM,24.8,21.2,86,29.98,3.0,ENE,6.9,-,N/A,,Overcast,70,2013-02-26 06:52:00
1:12 AM,24.8,21.2,86,29.98,3.0,ENE,5.8,-,N/A,,Overcast,60,2013-02-26 07:12:00
1:33 AM,24.8,23.0,93,29.97,3.0,ENE,6.9,-,N/A,,Overcast,60,2013-02-26 07:33:00
1:52 AM,24.8,23.0,93,29.98,3.0,ENE,6.9,-,N/A,,Overcast,60,2013-02-26 07:52:00
2:12 AM,24.8,23.0,93,29.98,3.0,NE,4.6,-,N/A,,Overcast,40,2013-02-26 08:12:00
2:33 AM,24.8,23.0,93,29.97,3.0,NNE,6.9,-,N/A,,Overcast,30,2013-02-26 08:33:00
2:52 AM,24.8,21.2,86,29.96,3.0,NNE,8.1,-,N/A,,Overcast,30,2013-02-26 08:52:00
3:12 AM,23.0,21.2,93,29.96,3.0,NNE,8.1,-,N/A,,Overcast,30,2013-02-26 09:12:00
3:33 AM,23.0,21.2,93,29.94,3.0,NNE,9.2,-,N/A,,Overcast,30,2013-02-26 09:33:00
3:52 AM,23.0,21.2,93,29.94,2.5,NNE,9.2,-,N/A,,Overcast,30,2013-02-26 09:52:00
4:12 AM,23.0,21.2,93,29.93,1.8,North,9.2,-,N/A,,Overcast,10,2013-02-26 10:12:00
4:33 AM,23.0,21.2,93,29.92,0.5,North,8.1,-,N/A,Fog,Light Freezing Fog,10,2013-02-26 10:33:00
4:52 AM,23.0,21.2,93,29.92,0.2,North,4.6,-,N/A,Snow,Snow,0,2013-02-26 10:52:00
5:12 AM,23.0,21.2,93,29.91,0.2,Calm,Calm,-,N/A,Snow,Light Snow,0,2013-02-26 11:12:00
5:33 AM,23.0,21.2,93,29.91,0.2,North,8.1,-,N/A,Snow,Light Snow,0,2013-02-26 11:33:00
5:52 AM,23.0,21.2,93,29.92,0.2,North,6.9,-,N/A,Snow,Light Snow,10,2013-02-26 11:52:00
6:12 AM,23.0,21.2,93,29.92,0.5,North,8.1,-,N/A,Snow,Light Snow,10,2013-02-26 12:12:00
6:33 AM,23.0,21.2,93,29.92,0.5,North,8.1,-,N/A,Snow,Light Snow,10,2013-02-26 12:33:00
6:52 AM,23.0,21.2,93,29.92,0.5,North,5.8,-,N/A,Fog,Light Freezing Fog,0,2013-02-26 12:52:00
7:12 AM,23.0,21.2,93,29.91,0.5,NNE,8.1,-,N/A,Fog,Light Freezing Fog,20,2013-02-26 13:12:00
7:33 AM,23.0,21.2,93,29.92,1.5,NNE,8.1,-,N/A,,Overcast,20,2013-02-26 13:33:00
7:52 AM,23.0,21.2,93,29.91,2.0,North,8.1,-,N/A,,Overcast,10,2013-02-26 13:52:00
8:12 AM,23.0,19.4,86,29.91,1.8,North,8.1,-,N/A,,Overcast,10,2013-02-26 14:12:00
8:33 AM,23.0,19.4,86,29.92,1.5,North,8.1,-,N/A,,Overcast,10,2013-02-26 14:33:00
8:52 AM,23.0,21.2,93,29.92,1.5,North,6.9,-,N/A,,Overcast,10,2013-02-26 14:52:00
9:12 AM,23.0,21.2,93,29.92,1.5,North,6.9,-,N/A,,Overcast,10,2013-02-26 15:12:00
9:33 AM,23.0,21.2,93,29.93,1.5,North,5.8,-,N/A,,Overcast,10,2013-02-26 15:33:00
9:52 AM,24.8,21.2,86,29.92,1.8,NNE,6.9,-,N/A,,Overcast,20,2013-02-26 15:52:00
10:12 AM,24.8,21.2,86,29.93,1.8,North,6.9,-,N/A,,Overcast,10,2013-02-26 16:12:00
10:33 AM,24.8,23.0,93,29.93,2.0,North,6.9,-,N/A,,Overcast,0,2013-02-26 16:33:00
10:52 AM,24.8,21.2,86,29.92,1.8,North,8.1,-,N/A,,Overcast,0,2013-02-26 16:52:00
11:13 AM,24.8,23.0,93,29.92,2.0,North,9.2,-,N/A,,Overcast,10,2013-02-26 17:13:00
11:32 AM,24.8,21.2,86,29.92,2.0,North,5.8,-,N/A,,Overcast,350,2013-02-26 17:32:00
11:52 AM,24.8,23.0,93,29.91,2.0,North,8.1,-,N/A,,Overcast,0,2013-02-26 17:52:00
12:13 PM,26.6,23.0,86,29.90,2.0,North,9.2,-,N/A,,Overcast,0,2013-02-26 18:13:00
12:32 PM,26.6,23.0,86,29.89,2.5,North,11.5,16.1,N/A,,Overcast,0,2013-02-26 18:32:00
12:53 PM,26.6,23.0,86,29.88,2.5,North,12.7,-,N/A,,Overcast,0,2013-02-26 18:53:00
1:13 PM,26.6,23.0,86,29.87,3.0,North,8.1,-,N/A,,Scattered Clouds,350,2013-02-26 19:13:00
1:32 PM,26.6,23.0,86,29.87,3.0,North,11.5,16.1,N/A,,Clear,350,2013-02-26 19:32:00
1:53 PM,28.4,23.0,80,29.86,3.0,North,12.7,-,N/A,,Haze,0,2013-02-26 19:53:00
2:13 PM,28.4,23.0,80,29.86,3.0,North,12.7,-,N/A,,Scattered Clouds,0,2013-02-26 20:13:00
2:32 PM,28.4,23.0,80,29.86,3.0,North,12.7,-,N/A,,Clear,0,2013-02-26 20:32:00
2:53 PM,28.4,23.0,80,29.86,3.0,North,12.7,18.4,N/A,,Clear,350,2013-02-26 20:53:00
3:13 PM,28.4,23.0,80,29.85,3.0,North,16.1,19.6,N/A,,Clear,0,2013-02-26 21:13:00
3:32 PM,28.4,23.0,80,29.85,3.0,North,12.7,-,N/A,,Clear,0,2013-02-26 21:32:00
3:53 PM,28.4,23.0,80,29.85,3.0,North,10.4,16.1,N/A,,Scattered Clouds,350,2013-02-26 21:53:00
4:13 PM,28.4,23.0,80,29.85,3.0,North,12.7,18.4,N/A,,Scattered Clouds,350,2013-02-26 22:13:00
4:32 PM,26.6,23.0,86,29.85,3.0,North,11.5,18.4,N/A,,Clear,350,2013-02-26 22:32:00
4:53 PM,26.6,23.0,86,29.84,3.0,North,12.7,19.6,N/A,,Clear,350,2013-02-26 22:53:00
5:12 PM,26.6,23.0,86,29.85,3.0,North,13.8,19.6,N/A,,Scattered Clouds,0,2013-02-26 23:12:00
5:33 PM,28.4,23.0,80,29.86,3.0,North,10.4,-,N/A,,Overcast,350,2013-02-26 23:33:00
5:53 PM,28.4,23.0,80,29.86,3.0,North,12.7,20.7,N/A,,Overcast,0,2013-02-26 23:53:00
6:12 PM,28.4,24.8,86,29.87,4.0,North,12.7,21.9,N/A,,Overcast,0,2013-02-27 00:12:00
6:33 PM,28.4,23.0,80,29.87,5.0,North,11.5,18.4,N/A,,Overcast,350,2013-02-27 00:33:00
6:52 PM,28.4,23.0,80,29.87,5.0,North,10.4,-,N/A,,Overcast,350,2013-02-27 00:52:00
7:12 PM,28.4,24.8,86,29.87,5.0,North,12.7,19.6,N/A,,Overcast,350,2013-02-27 01:12:00
7:33 PM,28.4,24.8,86,29.87,5.0,North,11.5,19.6,N/A,,Overcast,350,2013-02-27 01:33:00
7:52 PM,28.4,23.0,80,29.87,5.0,North,10.4,18.4,N/A,,Overcast,350,2013-02-27 01:52:00
8:12 PM,26.6,23.0,86,29.87,5.0,North,9.2,-,N/A,,Scattered Clouds,350,2013-02-27 02:12:00
8:33 PM,26.6,23.0,86,29.87,5.0,North,8.1,-,N/A,,Clear,350,2013-02-27 02:33:00
8:52 PM,26.6,23.0,86,29.87,7.0,NNW,9.2,-,N/A,,Clear,340,2013-02-27 02:52:00
9:13 PM,26.6,23.0,86,29.87,7.0,NNW,12.7,-,N/A,,Clear,340,2013-02-27 03:13:00
9:33 PM,26.6,23.0,86,29.87,7.0,NNW,16.1,20.7,N/A,,Clear,330,2013-02-27 03:33:00
9:52 PM,26.6,21.2,80,29.87,7.0,NNW,16.1,23.0,N/A,,Clear,340,2013-02-27 03:52:00
10:13 PM,26.6,21.2,80,29.88,7.0,NNW,15.0,20.7,N/A,,Clear,330,2013-02-27 04:13:00
10:52 PM,23.0,21.2,93,29.88,4.0,NNW,16.1,21.9,N/A,,Clear,330,2013-02-27 04:52:00
11:13 PM,23.0,21.2,93,29.88,4.0,NNW,17.3,21.9,N/A,,Clear,330,2013-02-27 05:13:00
11:32 PM,23.0,19.4,86,29.88,4.0,NNW,18.4,-,N/A,,Clear,330,2013-02-27 05:32:00
11:53 PM,23.0,19.4,86,29.87,4.0,NNW,17.3,-,N/A,,Clear,330,2013-02-27 05:53:00